Flag Weather past 2 weeks in Goch, North Rhine-Westphalia, Germany

Now
50 °F

Sunny.


Feels Like: 47 °F
Forecast: 40 / 52 °F
Wind: 8 mph from Southeast

Location: Niederrhein

Current Time: Nov 23, 2014 at 10:04:47 AM

Latest Report: Nov 23, 2014 at 9:20 AM


Visibility: 10 mi

Pressure: 30.07 "Hg

Humidity: 94%

Dew point: 48 °F

Location of GochLocation

Historic Weather in Goch — Graph

°F

Goch temperature yesterday

Maximum temperature yesterday: 54 °F (at 2:50 PM)
Minimum temperature yesterday: 37 °F (at 4:50 AM)
Average temperature yesterday: 47 °F

Past Weeks' High & Low Weather Summary

 TemperatureHumidityPressure
High57 °F (Nov 8, 1:50 PM)100% (Nov 9, 11:20 PM)30.33 "Hg (Nov 9, 11:20 PM)
Low37 °F (Nov 21, 4:50 AM)63% (Nov 8, 1:50 PM)29.50 "Hg (Nov 16, 2:50 PM)
Average49 °F93%29.85 "Hg
* Reported Nov 8 8:20 AM — Nov 23 8:50 AM, Goch, Weather by CustomWeather, © 2014

Note: Actual official high and low records may vary slightly from our data, if they occured in-between our weather recording intervals... More about our weather records

Advertising

Goch weather history for previous 24 hours

 ConditionsComfort  
Time TempWeatherWind HumidityBarometerVisibility
8:50 AM
Nov 23
48 °FClear.8 mph100%30.07 "Hg10 mi
8:20 AM48 °FClear.7 mph94%30.07 "Hg10 mi
7:50 AM46 °FClear.8 mph100%30.07 "Hg10 mi
7:20 AM46 °FClear.7 mph100%30.07 "Hg10 mi
6:50 AM48 °FClear.8 mph100%30.04 "Hg10 mi
6:20 AM48 °FClear.8 mph100%30.07 "Hg10 mi
5:50 AM48 °FClear.8 mph100%30.07 "Hg10 mi
5:20 AM48 °FClear.8 mph100%30.07 "Hg10 mi
4:50 AM48 °FClear.7 mph100%30.07 "Hg10 mi
11:50 PM
Nov 22
48 °FClear.7 mph100%30.07 "Hg10 mi
11:20 PM48 °FClear.8 mph94%30.07 "Hg10 mi
10:50 PM48 °FClear.8 mph100%30.07 "Hg10 mi
10:20 PM48 °FClear.8 mph100%30.07 "Hg10 mi
9:50 PM48 °FClear.10 mph100%30.07 "Hg10 mi
9:20 PM50 °FClear.9 mph94%30.07 "Hg10 mi
8:50 PM50 °FClear.10 mph94%30.04 "Hg10 mi
8:20 PM50 °FClear.9 mph94%30.04 "Hg10 mi
7:50 PM50 °FClear.10 mph94%30.04 "Hg10 mi
7:20 PM50 °FClear.10 mph94%30.04 "Hg10 mi
6:50 PM50 °FClear.9 mph94%30.04 "Hg10 mi
6:20 PM50 °FClear.9 mph94%30.04 "Hg10 mi
5:50 PM50 °FClear.8 mph94%30.04 "Hg10 mi
4:50 PM50 °FSunny.7 mph94%30.04 "Hg10 mi
4:20 PM50 °FSunny.7 mph94%30.04 "Hg10 mi
3:50 PM52 °FSunny.9 mph88%30.04 "Hg10 mi
3:20 PM52 °FSunny.9 mph88%30.04 "Hg10 mi
2:50 PM54 °FSunny.9 mph82%30.04 "Hg10 mi
2:20 PM52 °FPassing clouds.9 mph82%30.04 "HgN/A
1:50 PM52 °FSunny.9 mph82%30.04 "Hg10 mi
1:20 PM52 °FPassing clouds.9 mph82%30.04 "HgN/A
12:50 PM50 °FSunny.9 mph82%30.07 "Hg10 mi
11:50 AM48 °FSunny.12 mph87%30.07 "Hg10 mi
11:20 AM48 °FSunny.10 mph87%30.07 "Hg10 mi
10:50 AM46 °FSunny.10 mph87%30.07 "Hg10 mi
10:20 AM46 °FSunny.9 mph87%30.07 "Hg10 mi
Weather by CustomWeather, © 2014

See weather overviewHow to use our weather pages